Find Kosmos-1934

NORAD ID: 18985 Int'l Des: 1988-023 Owner: VMF Country: SU operational
LEOCIRCULARPOLAR

当前视图

正在加载3D地球...

关于 Kosmos-1934

正在加载描述...

即将过境

Passes for default location (London). Set your location on the main map for personalized predictions.

高度历史

Loading altitude history...

两行轨道根数

1 18985U 88023A 26146.30975632 .00000060 00000-0 45014-4 0 9990
2 18985 82.9558 171.2648 0040964 187.4340 172.6216 13.76680291792993
Epoch: May 26, 2026 • Age: 11 hours

当前状态

高度 975.0 km
速度 7.38 km/s
星下点 61.49°N, 176.42°E
发射日期 Mar 22, 1988
运行时间 38.1 years
类型 other

技术详情

分类 Payload
质量 800.00 kg
干质量 800.00 kg
总质量 800.00 kg
长度 5.00 m
直径 2.10 m
跨度 17.00 m
形状 Cyl + Ant
制造商 OAZ
平台类型 KAUR-1 11F627
阶段状态 Collided
所有者/国家 VMF/SU

Most Searched